This demonstration page uses our WeatherBlox Daily Observations layout. Learn more.

Left ArrowRight Arrow

36.17497, -115.13722

Hourly Observations for March 23, 2015

Temp ( °F °C ) Dew Point ( °F °C ) Humidity (%) Winds ( mph kmh ) Pressure ( in mb ) Visibility ( mi km ) Precip ( " mm )
12:53 am 00:53 Clear 67 19.4 22 -5.6 18 18 WSW 16 26 29.94 1014 10 16 N/A
1:53 am 01:53 Clear 65 18.3 24 -4.4 21 21 SW 22 35 29.92 1013 10 16 N/A
2:53 am 02:53 Clear 65 18.3 24 -4.4 21 21 SW 23 37 29.91 1013 10 16 N/A
3:53 am 03:53 Clear 64 17.8 23 -5 21 21 SSW 7 11 29.93 1014 10 16 N/A
4:53 am 04:53 Clear 62 16.7 26 -3.3 25 25 S 20 31 29.93 1014 10 16 N/A
5:53 am 05:53 Clear 61 16.1 26 -3.3 26 26 SSW 10 17 29.96 1014 10 16 N/A
6:53 am 06:53 Sunny 59 15 25 -3.9 27 27 W 5 7 29.97 1015 10 16 N/A
7:53 am 07:53 Sunny 58 14.4 30 -1.1 35 35 N 7 11 30.01 1016 10 16 N/A
8:53 am 08:53 Sunny 63 17.2 33 0.6 33 33 NNE 7 11 30.03 1017 10 16 N/A
9:53 am 09:53 Sunny 64 18 30 -1 28 28 E 3 6 29.97 1015 10 16 N/A
10:53 am 10:53 Sunny 69 20.6 27 -2.8 21 21 VRB 5 7 30.05 1018 10 16 N/A
11:53 am 11:53 Sunny 71 21.7 26 -3.3 19 19 N N/A 30.03 1017 10 16 N/A
12:53 pm 12:53 Sunny 72 22.2 24 -4.4 17 17 SE 3 6 30.01 1016 10 16 N/A
1:53 pm 13:53 Sunny 74 23.3 23 -5 15 15 ESE 3 6 29.99 1016 10 16 N/A
2:53 pm 14:53 Sunny 75 23.9 22 -5.6 14 14 S 5 7 29.96 1015 10 16 N/A
3:53 pm 15:53 Sunny 77 25 19 -7.2 11 11 SSE 8 13 29.94 1014 10 16 N/A
4:53 pm 16:53 Sunny 78 25.6 20 -6.7 11 11 SSE 10 17 29.92 1013 10 16 N/A
5:53 pm 17:53 Sunny 78 25.6 23 -5 13 13 S 12 19 29.91 1013 10 16 N/A
6:53 pm 18:53 Sunny 76 24.4 22 -5.6 13 13 SSW 8 13 29.92 1013 10 16 N/A
7:53 pm 19:53 Clear 72 22.2 24 -4.4 17 17 S 3 6 29.93 1014 10 16 N/A
8:53 pm 20:53 Clear 71 21.7 26 -3.3 19 19 W 10 17 29.95 1014 10 16 N/A
9:53 pm 21:53 Clear 69 20.6 26 -3.3 20 20 N N/A 29.97 1015 10 16 N/A
10:53 pm 22:53 Clear 66 18.9 27 -2.8 23 23 N 6 9 29.98 1015 10 16 N/A
11:53 pm 23:53 Clear 67 19.4 24 -4.4 20 20 WSW 8 13 29.98 1015 10 16 N/A

Powered by AerisWeather